"Pseudo-MPEC" for 3CD6321

Created 2023 Mar 19 8:22:02 UT using Find_Orb

Click here for an explanation of pseudo-MPECs

 
 Astrometry: 
     3CD6321*KC2023 03 14OZDFZRr#+A/+#wj)0KD#-IjPQifsXG=X'oP)L[$[f'31ew\/!DX[W94
     3CD6321 KC2023 03 14h.2X0xQByn+cjfg-IAstrometry94jTCERVAd8SOk*qjxLKpW4awW94
     3CD6321 KC2023 03 14Vg^%ZVmJe6J=lP81Ck:4ue$N7ODH_FN*-`aej5C7?redacted;6bW94
     3CD6321 KC2023 03 14'PW[/_M^)uVCA^IkdAE)GjrD'7Z]TbS*s49XaR;].^XG.^click8W95
     3CD6321 KC2023 03 14r%8!(MKcd+FGyI@gx)n:fWRD$`here]p2b.gij:n-YySw!,AN=tWW95
     3CD6321 KC2023 03 14ehwB@A[XqGuY5$)21be?:f%n.forSe\0QJ-explanationMj)N%aW95

Station data:
(W94) AMACS1, San Pedro de Atacama  (S22.953074 W68.179810)  Chile.  Observers
   A. Maury, G. Attard. Measurers A. Maury, G. Attard, D. Parrott. 0.28-m
   f/2.2 Schmidt + CCD.
(W95) Observatorio Panameno, San Pedro de Atacama  (S22.953178 W68.179880)
   Chile.  Observers A. Maury, G. Attard, J. Fabrega. Measurers A. Maury, G.
   Attard, D. Parrott. 0.40-m f/3.8 reflector + CCD.

Orbital elements:  3CD6321
   Perihelion 2023 Feb 12.91966 +/- 2.34 TT = 22:04:18 (JD 2459988.41966)
Epoch 2023 Mar 14.0 TT = JDT 2460017.5   Earth MOID: 0.0024   Ma: 0.0313
M  13.50384552 +/- 3.2              (J2000 ecliptic)             AutoNEOCP
n   0.46436344 +/- 0.0991           Peri.  150.74688 +/- 6
a   1.65157143 +/- 0.235            Node   346.36965 +/- 9
e   0.4294950 +/- 0.087             Incl.    1.64503 +/- 1.3
P   2.12/775.24d           H 27.39  G  0.15   U 11.2
q 0.94222973 +/- 0.0116    Q 2.36091313 +/- 0.48
From 6 observations 2023 Mar. 14 (1.7 hr); mean residual 0".81
Residuals in arcseconds: 
230314 W94  .52+  1.2+    230314 W94  .28-  .94-    230314 W95  .17+  .57-    
230314 W94  .38-  .79-    230314 W95  .26+  1.8+    230314 W95  .30-  .77-    

Ephemerides (geocentric):
Date (UTC) HH   RA             Dec           delta  r     elong  mag " sig PA
---- --------  ------------   ------------  ------ ------ -----  --- --------
2023 03 19 08  13 41 32.316   -23 20 03.08  .03113 1.0209 144.3 21.4 269' 168
2023 03 19 09  13 41 32.908   -23 18 27.68  .03131 1.0211 144.4 21.4 270' 168
2023 03 19 10  13 41 33.484   -23 16 53.28  .03149 1.0212 144.4 21.4 271' 168
2023 03 19 11  13 41 34.044   -23 15 19.86  .03167 1.0214 144.5 21.4 272' 169
2023 03 19 12  13 41 34.587   -23 13 47.40  .03185 1.0216 144.5 21.4 273' 169
2023 03 19 13  13 41 35.115   -23 12 15.87  .03203 1.0218 144.6 21.4 274' 169
2023 03 19 14  13 41 35.627   -23 10 45.28  .03221 1.0219 144.6 21.5 274' 169
2023 03 19 15  13 41 36.124   -23 09 15.59  .03239 1.0221 144.7 21.5 275' 169
2023 03 19 16  13 41 36.607   -23 07 46.80  .03257 1.0223 144.7 21.5 276' 169
2023 03 19 17  13 41 37.074   -23 06 18.89  .03275 1.0225 144.8 21.5 277' 169
2023 03 19 18  13 41 37.527   -23 04 51.84  .03293 1.0227 144.8 21.5 278' 169
2023 03 19 19  13 41 37.965   -23 03 25.64  .03312 1.0228 144.9 21.5 279' 169
2023 03 19 20  13 41 38.390   -23 02 00.28  .03330 1.0230 144.9 21.5 280' 169
2023 03 19 21  13 41 38.800   -23 00 35.75  .03348 1.0232 145.0 21.5 281' 169
2023 03 19 22  13 41 39.197   -22 59 12.02  .03366 1.0234 145.1 21.5 282' 169
2023 03 19 23  13 41 39.580   -22 57 49.09  .03384 1.0236 145.1 21.5 283' 169
2023 03 20 00  13 41 39.950   -22 56 26.94  .03402 1.0237 145.2 21.6 283' 169
2023 03 20 01  13 41 40.307   -22 55 05.56  .03420 1.0239 145.2 21.6 284' 169
2023 03 20 02  13 41 40.650   -22 53 44.94  .03438 1.0241 145.3 21.6 285' 169
2023 03 20 03  13 41 40.981   -22 52 25.06  .03456 1.0243 145.3 21.6 286' 169
2023 03 20 04  13 41 41.300   -22 51 05.92  .03474 1.0244 145.4 21.6 287' 169
2023 03 20 05  13 41 41.606   -22 49 47.50  .03492 1.0246 145.4 21.6 287' 169
2023 03 20 06  13 41 41.900   -22 48 29.79  .03511 1.0248 145.5 21.6 288' 169
2023 03 20 07  13 41 42.181   -22 47 12.79  .03529 1.0250 145.5 21.6 289' 169
2023 03 20 08  13 41 42.451   -22 45 56.47  .03547 1.0252 145.6 21.6 290' 169
2023 03 20 09  13 41 42.709   -22 44 40.83  .03565 1.0253 145.6 21.7 291' 169
2023 03 20 10  13 41 42.956   -22 43 25.85  .03583 1.0255 145.7 21.7 291' 169
2023 03 20 11  13 41 43.191   -22 42 11.53  .03601 1.0257 145.7 21.7 292' 169
2023 03 20 12  13 41 43.415   -22 40 57.87  .03619 1.0259 145.8 21.7 293' 169
2023 03 20 13  13 41 43.628   -22 39 44.83  .03637 1.0261 145.8 21.7 294' 170
2023 03 20 14  13 41 43.829   -22 38 32.43  .03655 1.0263 145.9 21.7 294' 170
2023 03 20 15  13 41 44.020   -22 37 20.64  .03674 1.0264 145.9 21.7 295' 170
2023 03 20 16  13 41 44.201   -22 36 09.46  .03692 1.0266 146.0 21.7 296' 170
2023 03 20 17  13 41 44.370   -22 34 58.89  .03710 1.0268 146.0 21.7 297' 170
2023 03 20 18  13 41 44.530   -22 33 48.90  .03728 1.0270 146.1 21.7 297' 170
2023 03 20 19  13 41 44.679   -22 32 39.49  .03746 1.0272 146.1 21.7 298' 170
2023 03 20 20  13 41 44.818   -22 31 30.66  .03764 1.0273 146.2 21.8 299' 170
2023 03 20 21  13 41 44.947   -22 30 22.39  .03782 1.0275 146.2 21.8 299' 170
2023 03 20 22  13 41 45.066   -22 29 14.68  .03801 1.0277 146.3 21.8 300' 170
2023 03 20 23  13 41 45.175   -22 28 07.52  .03819 1.0279 146.3 21.8 301' 170
2023 03 21 00  13 41 45.275   -22 27 00.90  .03837 1.0281 146.4 21.8 301' 170
2023 03 21 01  13 41 45.365   -22 25 54.81  .03855 1.0283 146.4 21.8 302' 170
2023 03 21 02  13 41 45.446   -22 24 49.25  .03873 1.0284 146.5 21.8 303' 170
2023 03 21 03  13 41 45.517   -22 23 44.20  .03891 1.0286 146.5 21.8 303' 170
2023 03 21 04  13 41 45.579   -22 22 39.66  .03909 1.0288 146.6 21.8 304' 170
2023 03 21 05  13 41 45.633   -22 21 35.63  .03928 1.0290 146.6 21.8 305' 170
2023 03 21 06  13 41 45.677   -22 20 32.09  .03946 1.0292 146.7 21.8 305' 170
2023 03 21 07  13 41 45.713   -22 19 29.04  .03964 1.0294 146.7 21.9 306' 170